• In France
  • List of Countries
  • For 7 days
  • Water Temperature
  • Satellite Maps
  • Weather Map
  • Weather Widgets
  • user-avatar
    Login

    Hourly Weather Medellín

    Today, 14 December, Thursday

    Time Temperature Precipitation Wind Pressure Humidity
    00:00 +13°C° 0 mm 1 mps 585 mmHg 95%
    01:00 +13°C° 0 mm 1 mps 585 mmHg 95%
    02:00 +12°C° 0 mm 1 mps 585 mmHg 94%
    03:00 +12°C° 0 mm 1 mps 585 mmHg 93%
    04:00 +12°C° 0 mm 1 mps 584 mmHg 92%
    05:00 +12°C° 0 mm 1 mps 585 mmHg 92%
    06:00 +12°C° 0 mm 1 mps 585 mmHg 91%
    07:00 +12°C° 0 mm 1 mps 585 mmHg 90%
    08:00 +15°C° 0 mm 1 mps 587 mmHg 78%
    09:00 +19°C° 0 mm 1 mps 588 mmHg 65%
    10:00 +22°C° 0 mm 1 mps 589 mmHg 53%
    11:00 +23°C° 0 mm 1 mps 589 mmHg 48%
    12:00 +24°C° 0 mm 1 mps 589 mmHg 44%
    13:00 +26°C° 0 mm 1 mps 589 mmHg 40%
    14:00 +25°C° 0 mm 1 mps 588 mmHg 44%
    15:00 +24°C° 0 mm 1 mps 587 mmHg 49%
    16:00 +23°C° 0 mm 1 mps 587 mmHg 53%
    17:00 +20°C° 0.1 mm 1 mps 586 mmHg 66%
    18:00 +18°C° 0.1 mm 1 mps 585 mmHg 78%
    19:00 +14°C° 0.1 mm 1 mps 584 mmHg 91%
    20:00 +14°C° 0 mm 1 mps 585 mmHg 92%
    21:00 +14°C° 0 mm 1 mps 585 mmHg 93%
    22:00 +14°C° 0 mm 1 mps 585 mmHg 95%
    23:00 +13°C° 0 mm 1 mps 585 mmHg 94%

    Tomorrow, 15 December, Friday

    Time Temperature Precipitation Wind Pressure Humidity
    00:00 +13°C° 0 mm 1 mps 585 mmHg 94%
    01:00 +12°C° 0 mm 1 mps 585 mmHg 93%
    02:00 +12°C° 0 mm 1 mps 584 mmHg 92%
    03:00 +11°C° 0 mm 1 mps 584 mmHg 91%
    04:00 +11°C° 0 mm 1 mps 584 mmHg 90%
    05:00 +11°C° 0 mm 1 mps 584 mmHg 87%
    06:00 +11°C° 0 mm 1 mps 584 mmHg 83%
    07:00 +11°C° 0 mm 1 mps 584 mmHg 80%
    08:00 +15°C° 0 mm 1 mps 586 mmHg 67%
    09:00 +19°C° 0 mm 1 mps 588 mmHg 54%
    10:00 +23°C° 0 mm 1 mps 589 mmHg 41%
    11:00 +24°C° 0 mm 1 mps 589 mmHg 39%
    12:00 +25°C° 0 mm 1 mps 589 mmHg 36%
    13:00 +26°C° 0 mm 1 mps 589 mmHg 34%
    14:00 +25°C° 0 mm 1 mps 588 mmHg 37%
    15:00 +25°C° 0 mm 1 mps 587 mmHg 40%
    16:00 +24°C° 0 mm 1 mps 587 mmHg 43%
    17:00 +21°C° 0.1 mm 1 mps 586 mmHg 55%
    18:00 +18°C° 0.1 mm 1 mps 585 mmHg 67%
    19:00 +15°C° 0.1 mm 1 mps 584 mmHg 79%
    20:00 +14°C° 0.1 mm 1 mps 585 mmHg 81%
    21:00 +14°C° 0.1 mm 1 mps 585 mmHg 84%
    22:00 +13°C° 0.1 mm 1 mps 585 mmHg 87%
    23:00 +13°C° 0 mm 1 mps 585 mmHg 87%

    Day after tomorrow, 16 December, Saturday

    Time Temperature Precipitation Wind Pressure Humidity
    00:00 +12°C° 0 mm 1 mps 585 mmHg 87%
    01:00 +12°C° 0 mm 1 mps 584 mmHg 87%
    02:00 +12°C° 0 mm 1 mps 584 mmHg 87%
    03:00 +12°C° 0 mm 1 mps 584 mmHg 87%
    04:00 +11°C° 0 mm 1 mps 584 mmHg 86%
    05:00 +12°C° 0 mm 1 mps 584 mmHg 85%
    06:00 +12°C° 0 mm 1 mps 585 mmHg 84%
    07:00 +13°C° 0 mm 1 mps 585 mmHg 83%
    08:00 +16°C° 0 mm 1 mps 587 mmHg 72%
    09:00 +20°C° 0 mm 1 mps 588 mmHg 62%
    10:00 +23°C° 0 mm 1 mps 590 mmHg 51%
    11:00 +23°C° 0 mm 1 mps 589 mmHg 51%
    12:00 +24°C° 0 mm 1 mps 589 mmHg 51%
    13:00 +24°C° 0 mm 1 mps 588 mmHg 51%
    14:00 +24°C° 0.2 mm 1 mps 587 mmHg 55%
    15:00 +23°C° 0.2 mm 1 mps 587 mmHg 60%
    16:00 +22°C° 0.2 mm 1 mps 586 mmHg 65%
    17:00 +20°C° 0.2 mm 1 mps 585 mmHg 73%
    18:00 +18°C° 0.2 mm 1 mps 585 mmHg 82%
    19:00 +15°C° 0.2 mm 1 mps 585 mmHg 91%
    20:00 +15°C° 0.1 mm 1 mps 585 mmHg 92%
    21:00 +14°C° 0.1 mm 1 mps 585 mmHg 93%
    22:00 +14°C° 0.1 mm 1 mps 585 mmHg 94%
    23:00 +14°C° 0 mm 1 mps 585 mmHg 94%

    17 December, Sunday

    Time Temperature Precipitation Wind Pressure Humidity
    00:00 +14°C° 0 mm 1 mps 585 mmHg 93%
    01:00 +12°C° 0 mm 0 mps 585 mmHg 93%
    02:00 +12°C° 0 mm 0 mps 584 mmHg 93%
    03:00 +12°C° 0 mm 0 mps 584 mmHg 92%
    04:00 +11°C° 0 mm 0 mps 584 mmHg 92%
    05:00 +13°C° 0 mm 1 mps 584 mmHg 91%
    06:00 +13°C° 0 mm 1 mps 585 mmHg 90%
    07:00 +13°C° 0 mm 1 mps 585 mmHg 88%
    08:00 +15°C° 0 mm 1 mps 586 mmHg 77%
    09:00 +19°C° 0 mm 1 mps 587 mmHg 66%
    10:00 +22°C° 0 mm 1 mps 589 mmHg 55%
    11:00 +23°C° 0 mm 1 mps 589 mmHg 50%
    12:00 +25°C° 0 mm 1 mps 589 mmHg 44%
    13:00 +26°C° 0 mm 1 mps 589 mmHg 39%
    14:00 +25°C° 0 mm 1 mps 588 mmHg 41%
    15:00 +25°C° 0 mm 1 mps 587 mmHg 43%
    16:00 +24°C° 0 mm 1 mps 586 mmHg 45%
    17:00 +21°C° 0 mm 1 mps 585 mmHg 59%
    18:00 +18°C° 0 mm 1 mps 585 mmHg 72%
    19:00 +15°C° 0 mm 1 mps 584 mmHg 85%
    20:00 +14°C° 0 mm 1 mps 584 mmHg 87%
    21:00 +14°C° 0 mm 1 mps 584 mmHg 89%
    22:00 +13°C° 0 mm 1 mps 585 mmHg 91%
    23:00 +13°C° 0 mm 1 mps 584 mmHg 90%

    18 December, Monday

    Time Temperature Precipitation Wind Pressure Humidity
    00:00 +13°C° 0 mm 1 mps 584 mmHg 88%
    01:00 +12°C° 0 mm 1 mps 583 mmHg 87%
    02:00 +12°C° 0 mm 1 mps 583 mmHg 86%
    03:00 +12°C° 0 mm 1 mps 583 mmHg 84%
    04:00 +11°C° 0 mm 1 mps 583 mmHg 83%
    05:00 +12°C° 0 mm 1 mps 583 mmHg 80%
    06:00 +12°C° 0 mm 1 mps 584 mmHg 78%
    07:00 +12°C° 0 mm 1 mps 585 mmHg 75%
    08:00 +16°C° 0 mm 1 mps 586 mmHg 63%
    09:00 +20°C° 0 mm 1 mps 588 mmHg 51%
    10:00 +23°C° 0 mm 1 mps 589 mmHg 39%
    11:00 +24°C° 0 mm 1 mps 589 mmHg 35%
    12:00 +25°C° 0 mm 1 mps 589 mmHg 31%
    13:00 +27°C° 0 mm 1 mps 589 mmHg 27%
    14:00 +26°C° 0 mm 1 mps 588 mmHg 28%
    15:00 +25°C° 0 mm 1 mps 587 mmHg 30%
    16:00 +24°C° 0 mm 1 mps 587 mmHg 31%
    17:00 +21°C° 0 mm 1 mps 586 mmHg 42%
    18:00 +18°C° 0 mm 1 mps 585 mmHg 53%
    19:00 +14°C° 0 mm 1 mps 584 mmHg 64%
    20:00 +13°C° 0 mm 1 mps 584 mmHg 67%
    21:00 +12°C° 0 mm 1 mps 584 mmHg 69%
    22:00 +12°C° 0 mm 1 mps 585 mmHg 71%
    23:00 +12°C° 0 mm 1 mps 584 mmHg 70%

    19 December, Tuesday

    Time Temperature Precipitation Wind Pressure Humidity
    00:00 +11°C° 0 mm 1 mps 584 mmHg 69%
    01:00 +11°C° 0 mm 1 mps 584 mmHg 69%
    02:00 +10°C° 0 mm 1 mps 583 mmHg 69%
    03:00 +10°C° 0 mm 1 mps 583 mmHg 69%
    04:00 +10°C° 0 mm 1 mps 583 mmHg 69%
    05:00 +10°C° 0 mm 1 mps 584 mmHg 68%
    06:00 +10°C° 0 mm 1 mps 584 mmHg 67%
    07:00 +11°C° 0 mm 1 mps 585 mmHg 66%
    08:00 +15°C° 0 mm 1 mps 586 mmHg 54%
    09:00 +19°C° 0 mm 1 mps 588 mmHg 41%
    10:00 +23°C° 0 mm 1 mps 590 mmHg 29%
    11:00 +24°C° 0 mm 1 mps 589 mmHg 27%
    12:00 +25°C° 0 mm 1 mps 589 mmHg 25%
    13:00 +27°C° 0 mm 1 mps 589 mmHg 23%
    14:00 +26°C° 0 mm 1 mps 588 mmHg 26%
    15:00 +25°C° 0 mm 1 mps 588 mmHg 28%
    16:00 +24°C° 0 mm 1 mps 587 mmHg 31%
    17:00 +21°C° 0 mm 1 mps 586 mmHg 43%
    18:00 +18°C° 0 mm 1 mps 585 mmHg 56%
    19:00 +13°C° 0 mm 1 mps 584 mmHg 68%
    20:00 +13°C° 0 mm 1 mps 584 mmHg 71%
    21:00 +12°C° 0 mm 1 mps 585 mmHg 74%
    22:00 +12°C° 0 mm 1 mps 585 mmHg 78%
    23:00 +11°C° 0 mm 1 mps 584 mmHg 76%
    Show more